"Pseudo-MPEC" for P21VdDW

Created 2024 Jun 26 17:22:07 UT using Find_Orb

Click here for an explanation of pseudo-MPECs

 
 Astrometry: 
     P21VdDW* C2024 06 06hTRNSMq]m%Xq%4f5uRQa=@#7mmn/[HacUiAstrometryZ8-(r@yQF52
     P21VdDW  C2024 06 06.S=xNIOif)cC@064?r7[5l$J_eRWredacted;++b:^%lf(clickuF52
     P21VdDW  C2024 06 06/I$rlD()2UI7D;nUF2herefQNZiSL/5G^K6QIs4[OC_fg![\0;\BF52
     P21VdDW  C2024 06 06'hforpaW#gA8h_w9P(#xR_]8SbHnyDexplanationvgn7xKY?cGYF52

Station data:
(F52) Pan-STARRS 2, Haleakala  (N20.707382 W156.255910)  US/Hawaii.
   Observers J. Bulger, T. Dukes, T. Lowe, A. Schultz, M. Willman. Measurers
   K. Chambers, S. Chastel, T. de Boer, L. Denneau, J. Fairlamb, H.
   Flewelling, M. Huber, C.-C. Lin, E. Magnier, Y. Ramanjooloo, R. Wainscoat,
   R. Weryk. 1.8-m Ritchey-Chrétien + CCD.

Orbital elements:  P21VdDW
   Perihelion 2024 Jul 23.89457 +/- 42.1 TT = 21:28:11 (JD 2460515.39457)
Epoch 2024 Jun  6.0 TT = JDT 2460467.5   Earth MOID: 0.2985   Ju: 0.9136
M 350.63183688 +/- 14               Ma: 0.0456                   AutoNEOCP
n   0.19559968 +/- 0.223            Peri.  158.00199 +/- 90
a   2.93916489 +/- 2.24             Node   132.11190 +/- 42
e   0.5608224 +/- 0.267             Incl.   27.52607 +/- 8
P   5.04                   H 20.31  G  0.15   U 11.7  SR
q 1.29081516 +/- 0.365    Q 4.58751463 +/- 74.1           (J2000 ecliptic)
From 4 observations 2024 June 6 (51.7 min); mean residual 0".11
Residuals in arcseconds: 
240606 F52  .09+  .10-    240606 F52  .16-  .03-    
240606 F52  .06-  .17+    240606 F52  .12+  .04-    

Ephemerides (geocentric):
Date (UTC) HH   RA             Dec           delta  r     elong  mag " sig PA
---- --------  ------------   ------------  ------ ------ -----  --- --------
2024 06 26 17  17 20 50.427   +36 37 52.84  .49772 1.3268 118.3 21.1  40d  60
2024 06 26 18  17 20 50.478   +36 36 41.87  .49749 1.3267 118.3 21.1  40d  60
2024 06 26 19  17 20 50.531   +36 35 30.74  .49725 1.3266 118.3 21.1  40d  60
2024 06 26 20  17 20 50.587   +36 34 19.45  .49702 1.3265 118.3 21.1  40d  60
2024 06 26 21  17 20 50.645   +36 33 07.99  .49679 1.3264 118.3 21.1  40d  60
2024 06 26 22  17 20 50.705   +36 31 56.37  .49655 1.3263 118.3 21.1  40d  60
2024 06 26 23  17 20 50.767   +36 30 44.59  .49632 1.3262 118.3 21.1  40d  60
2024 06 27 00  17 20 50.831   +36 29 32.65  .49608 1.3261 118.4 21.1  40d  60
2024 06 27 01  17 20 50.898   +36 28 20.54  .49585 1.3260 118.4 21.1  40d  60
2024 06 27 02  17 20 50.967   +36 27 08.27  .49561 1.3259 118.4 21.1  40d  60
2024 06 27 03  17 20 51.039   +36 25 55.83  .49538 1.3257 118.4 21.0  40d  60
2024 06 27 04  17 20 51.112   +36 24 43.24  .49515 1.3256 118.4 21.0  40d  60
2024 06 27 05  17 20 51.188   +36 23 30.47  .49491 1.3255 118.4 21.0  40d  60
2024 06 27 06  17 20 51.266   +36 22 17.54  .49468 1.3254 118.4 21.0  40d  60
2024 06 27 07  17 20 51.347   +36 21 04.45  .49445 1.3253 118.4 21.0  40d  60
2024 06 27 08  17 20 51.430   +36 19 51.19  .49421 1.3252 118.4 21.0  40d  60
2024 06 27 09  17 20 51.515   +36 18 37.77  .49398 1.3251 118.5 21.0  40d  60
2024 06 27 10  17 20 51.603   +36 17 24.19  .49375 1.3250 118.5 21.0  40d  60
2024 06 27 11  17 20 51.693   +36 16 10.43  .49351 1.3249 118.5 21.0  40d  60
2024 06 27 12  17 20 51.785   +36 14 56.52  .49328 1.3248 118.5 21.0  40d  60
2024 06 27 13  17 20 51.880   +36 13 42.43  .49305 1.3247 118.5 21.0  40d  60
2024 06 27 14  17 20 51.977   +36 12 28.18  .49281 1.3246 118.5 21.0  40d  60
2024 06 27 15  17 20 52.076   +36 11 13.77  .49258 1.3245 118.5 21.0  40d  60
2024 06 27 16  17 20 52.178   +36 09 59.19  .49235 1.3244 118.5 21.0  40d  60
2024 06 27 17  17 20 52.282   +36 08 44.44  .49212 1.3243 118.5 21.0  40d  60
2024 06 27 18  17 20 52.388   +36 07 29.53  .49188 1.3242 118.6 21.0  40d  60
2024 06 27 19  17 20 52.497   +36 06 14.45  .49165 1.3241 118.6 21.0  40d  60
2024 06 27 20  17 20 52.609   +36 04 59.20  .49142 1.3240 118.6 21.0  40d  60
2024 06 27 21  17 20 52.723   +36 03 43.79  .49119 1.3239 118.6 21.0  40d  60
2024 06 27 22  17 20 52.839   +36 02 28.21  .49095 1.3238 118.6 21.0  40d  60
2024 06 27 23  17 20 52.958   +36 01 12.46  .49072 1.3236 118.6 21.0  40d  60
2024 06 28 00  17 20 53.079   +35 59 56.55  .49049 1.3235 118.6 21.0  40d  60
2024 06 28 01  17 20 53.202   +35 58 40.46  .49026 1.3234 118.6 21.0  40d  60
2024 06 28 02  17 20 53.328   +35 57 24.21  .49003 1.3233 118.6 21.0  40d  60
2024 06 28 03  17 20 53.457   +35 56 07.79  .48979 1.3232 118.7 21.0  40d  60
2024 06 28 04  17 20 53.588   +35 54 51.21  .48956 1.3231 118.7 21.0  40d  60
2024 06 28 05  17 20 53.721   +35 53 34.45  .48933 1.3230 118.7 21.0  40d  60
2024 06 28 06  17 20 53.857   +35 52 17.53  .48910 1.3229 118.7 21.0  40d  60
2024 06 28 07  17 20 53.995   +35 51 00.44  .48887 1.3228 118.7 21.0  40d  60
2024 06 28 08  17 20 54.136   +35 49 43.18  .48864 1.3227 118.7 21.0  40d  60
2024 06 28 09  17 20 54.279   +35 48 25.75  .48841 1.3226 118.7 21.0  40d  60
2024 06 28 10  17 20 54.425   +35 47 08.15  .48817 1.3225 118.7 21.0  40d  60
2024 06 28 11  17 20 54.574   +35 45 50.39  .48794 1.3224 118.8 21.0  40d  60
2024 06 28 12  17 20 54.725   +35 44 32.45  .48771 1.3223 118.8 21.0  40d  60
2024 06 28 13  17 20 54.878   +35 43 14.34  .48748 1.3222 118.8 21.0  40d  60
2024 06 28 14  17 20 55.034   +35 41 56.07  .48725 1.3221 118.8 21.0  40d  60
2024 06 28 15  17 20 55.193   +35 40 37.62  .48702 1.3220 118.8 21.0  40d  60
2024 06 28 16  17 20 55.354   +35 39 19.01  .48679 1.3219 118.8 21.0  40d  60